Погода в Павелеце

Погода в Павелеце : погода сейчас, прогноз погоды и архив. Всё, что Вы хотите узнать о погоде в Павелеце!

Поиск расширенной информации на нашем сайте:

Другие новости

Новости СМИ2

Главная страница сайта

Новости сайта

03.07.2017

Напоминаем, что на нашем специализированном сайте Метеоцентр.Азия вы можете получить высокодетализированные автоматические прогнозы погоды по пунктам России, СНГ и мира в авиационном формате (включающие направление и скорость ветра, видимость, явления погоды, количество и форму облачности, нижнюю и верхнюю границу облачности).

Рекомендуем: DONIC level 800 Waldner готовая ракетка

Погода в Павелеце - сегодня

Время (UTC), дата Ветер
(°,м/с) 
Видим.   Явления Облачность Т
(°С)
Тd
(°С)
f(%) Тe
(°С)
Pmin
(гПа)
dP
(гПа)
Po
(мм)
O2
(г/м3)
Тmin Tmax R s Состояние
почвы
09 20.01.18 140 (ЮВ) 4000 м  слаб. снег  10/8 300 м средняя 
[Frnb|As trans]
-8.9 -10.6 87 -12  1012.8  -0.3  739  309           
12 20.01.18 140 (ЮВ) 4000 м  слаб. снег  10/8 300 м средняя 
[Frnb|As trans]
-8.1 -9.9 87 -11  1012.2  -0.5  739  308           
15 20.01.18 150 (ЮВ) 4000 м  слаб. снег  10/8 300 м средняя 
[Frnb|As trans]
-7.6 -8.8 91 -10  1011.9  -0.2  739  307    -7.6     
18 20.01.18 170 (Ю) 20000 м  слаб. снег  10/6 300 м средняя 
[Frnb|As op]
-4.6 -5.2 96 -7  1011.7  739  303           
21 20.01.18 190 (Ю) 20000 м  {снег}  10/0 средняя 
[Frnb|As op]
-2.6 -4.4 87 -5  1011.9  0.4  739  301           
00 21.01.18 170 (Ю) 20000 м  слаб. снег  10/0 средняя 
[As op]
-2.6 -4.4 87 -5  1011.9  0.1  739  301           
03 21.01.18 140 (ЮВ) 20000 м    10/4 300 м средняя 
[Frnb|As op]
-2.4 -3 96 -3  1011.3  -0.8  739  301  -7.6    0.5  равномерный
сухой снег
100% 
06 21.01.18 120 (ЮВ) 20000 м    10/4 300 м средняя 
[Frnb|As op]
-4 -4.7 95 -5  1010.9  -0.5  738  302           
09 21.01.18 110 (В) 20000 м    10/3 300 м средняя 
[Frnb|As op]
-4 -5.8 87 -5  1009.9  -1  738  302           
12 21.01.18 040 (СВ) 4000 м  слаб. снег  10/6 300 м средняя 
[Frnb|As op]
-4.4 -5.1 95 -7  1008.1  -1.8  736  302           
15 21.01.18 350 (С) 4000 м  слаб. снег  10/8 300 м средняя 
[Frnb|As op]
-5 -5.6 96 -6  1007.8  -0.3  736  303    -2.5     
18 21.01.18 320 (СЗ) 20000 м  в посл. час снег  10/6 300 м средняя 
[Frnb|As trans]
-5.7 -6.4 95 -5  1007.9  -0.1  736  304           
21 21.01.18 290 (З) 4000 м  дымка  10/10 300 м 
[St]
-5.1 -5.8 95 -5  1010  738  303           
00 22.01.18 260 (З) 4000 м  дымка  10/10 300 м 
[St]
-4.3 -4.9 96 -7  1011.4  1.5  739  303           
03 22.01.18 270 (З) 20000 м  слаб. снег  10/8 300 м средняя 
[Frnb|As trans]
-5.1 -6.3 91 -7  1013.9  2.3  740  305  -5.7    равномерный
сухой снег
100% 
06 22.01.18 270 (З) 20000 м  {снег}  8/0 средняя, верхняя 
[Ac As|Ci fib]
-7.1 -8.9 87 -7  1016.2  742  308  -7.1         
09 22.01.18 270 (З) 20000 м    6/0 средняя, верхняя 
[Ac trans|Ci fib]
-5.4 -9 76 -5  1018.2  2.1  744  307           
12 22.01.18 240 (ЮЗ) 20000 м    4/0 средняя, верхняя 
[Ac trans|Ci fib]
-6.4 -11.1 69 -8  1020  1.7  745  308           
15 22.01.18 тихо ()   20000 м    8/0 средняя, верхняя 
[Ac trans|Ci]
-11.4 -12.4 92 -11  1021.7  1.2  746  315    -3.8  0.0     
18 22.01.18 тихо ()   20000 м    10/0 верхняя 
[Ci]
-13.6 -14.8 91 -14  1023.1  1.1  747  318           
21 22.01.18 360 (С) 20000 м    10/0 верхняя 
[Ci ing]
-12.6 -13.7 91 -13  1023.8  0.8  747  317           
00 23.01.18 тихо ()   20000 м    10/0 верхняя 
[Ci ing]
-13.5 -15 88 -14  1024.5  0.5  748  318           
03 23.01.18 тихо ()   20000 м    10/0 верхняя 
[Ci ing]
-13.5 -15.1 88 -14  1024.8  0.3  748  318  -13.9      равномерный
сухой снег
100% 
06 23.01.18 360 (С) 20000 м    10/0 верхняя 
[Ci]
-12 -13.4 89 -14  1025.1  0.4  748  317           
09 23.01.18 350 (С) 20000 м    10/0 средняя 
[Ac As]
-10 -11.7 87 -12  1025  0.4  748  314           
Время (UTC), дата Ветер
(°,м/с) 
Видим.   Явления Облачность Т
(°С)
Тd
(°С)
f(%) Тe
(°С)
Pmin
(гПа)
dP
(гПа)
Po
(мм)
O2
(г/м3)
Тmin Tmax R s Состояние
почвы

Для получения пояснительной информации подведите курсор к названию столбца.

ПОГОДА в Павелеце - архив

Всё, что Вы хотите узнать о погоде в Павелеце - удобно и подробно!

Выберите нужную дату (начиная с 1 января 2015* года) и нажмите кнопку "Найти".
Будут отображены архивные сводки погоды по пункту Павелец, начиная с указанной даты.


Отображать данные в формате CSV (для использования в таблицах Excel)


Внимание! Наш архив погоды предназначен исключительно для личного некоммерческого использования в познавательных целях. Если Вам необходимы официальные справки о состоянии погоды (для производственных, юридических, коммерческих и т.п. целей), обращайтесь в органы Росгидромета.

*Примечание: данная дата относится к архиву по метеостанциям СССР (Россия, СНГ, Балтия).
Архив по метеостанциям Зарубежной Европы и Азии (кроме Китая) хранится 10 дней, по другим регионам земного шара (Китай, Африка, Америка, Австралия, Океания) - 1 день.

Павелец - район местоположения метеостанции


Название, широта, долгота, высота метеостанции:
Павелец 53.8°ш. 39.2°д. 209 м над ур. моря [Российская Федерация]

Дополнительная информация

В oтличие oт бoльшинства пoгoдных сайтoв мы публикуем пoдрoбную метеoинфoрмацию в детальнoм прoфессиoнальнoм фoрмате.

Характеристики температуры и влажнoсти вoздуха измеряются на высoте 2 м в тени вдали oт зданий и деревьев.
Скoрoсть ветра измеряется на высoте 10 м (на урoвне рoста челoвека скoрoсть ветра ниже в 1.5-2 раза). Если метеoстанция нахoдится в гoрoде или в лесу, тo скoрoсть ветра занижена на 2-4 м/с пo сравнению с oткрытым местoм. Скoрoсть ветра над акватoриями крупных рек и oзёр, а также на вершинах хoлмoв на 2-5 м/с выше, чем в oбычных услoвиях.
Атмoсфернoе давление в разных тoчках местнoсти мoжет значительнo oтличаться oт давления на метеoстанции, в зависимoсти oт услoвий рельефа (при пoдъёме на 10 м давление пoнижается примернo на 1 мм рт.ст.).